Weather History for KFLG - February, 2015

Change the Weather History Date:

Tuesday, February 24, 2015

  Actual Average Record
Temperature  
Mean Temperature 28 °F 33 °F  
Max Temperature 38 °F 46 °F 66 °F (1904)
Min Temperature 18 °F 21 °F -4 °F (1909)
Degree Days  
Heating Degree Days 37 32  
Month to date heating degree days 571 797  
Since 1 July heating degree days 3920 4713  
Cooling Degree Days 0 0  
Month to date cooling degree days 0 0  
Year to date cooling degree days 0 0  
Moisture  
Dew Point 23 °F    
Average Humidity 76    
Maximum Humidity 100    
Minimum Humidity 52    
Precipitation  
Precipitation 0.07 in 0.08 in 1.19 in (1987)
Month to date precipitation 1.64 1.84  
Year to date precipitation 3.83 3.89  
Snow  
Snow 1.00 in 0.70 in 21.10 in (1987)
Month to date snowfall 8.6 18.2  
Since 1 July snowfall 38.3 70.5  
Snow Depth 5.00 in    
Sea Level Pressure  
Sea Level Pressure 30.02 in    
Wind  
Wind Speed 2 mph (ENE)    
Max Wind Speed 10 mph    
Max Gust Speed 15 mph    
Visibility 7 miles    
Events Fog , Snow    
T = Trace of Precipitation, MM = Missing Value Source: NWS Daily Summary

Daily Weather History Graph

Daily Weather History Graph

Search for Another Location

Airport or City:

Trip Planner

Search our weather history database for the weather conditions in past years. The results will help you decide how hot, cold, wet, or windy it might be!

Date:

Astronomy

Feb. 24, 2015 Rise Set
Actual Time 7:02 AM MST 6:17 PM MST
Civil Twilight 6:37 AM MST 6:43 PM MST
Nautical Twilight 6:07 AM MST 7:12 PM MST
Astronomical Twilight 5:38 AM MST 7:42 PM MST
Moon 10:54 AM MST (2/24) No Moon Set
Length of Visible Light 12h 06m
Length of Day
11h 14m
Waxing Crescent, 40% of the Moon is Illuminated
Feb 24
Waxing Crescent
Feb 25
First Quarter
Mar 5
Full
Mar 13
Last Quarter
Mar 20
New

Hourly Weather History & Observations

Time (MST) Temp. Windchill Dew Point Humidity Pressure Visibility Wind Dir Wind Speed Gust Speed Precip Events Conditions
12:02 AM 30.0 °F 23.2 °F 28.0 °F 92% 30.03 in 2.0 mi NNE 6.9 mph - 0.00 in Snow Light Snow
12:12 AM 30.0 °F 24.1 °F 27.0 °F 88% 30.02 in 4.0 mi NE 5.8 mph - 0.00 in Snow Light Snow
12:39 AM 30.0 °F 26.5 °F 28.0 °F 92% 30.03 in 5.0 mi East 3.5 mph - 0.00 in Snow Light Snow
12:48 AM 30.0 °F 25.2 °F 27.0 °F 88% 30.02 in 2.5 mi ENE 4.6 mph - 0.00 in Snow Light Snow
12:57 AM 30.0 °F 26.5 °F 27.0 °F 88% 29.99 in 2.0 mi East 3.5 mph - 0.01 in Snow Light Snow
1:08 AM 30.0 °F - 27.0 °F 88% 30.02 in 2.0 mi Calm Calm - 0.00 in Snow Light Snow
1:34 AM 28.0 °F 20.0 °F 26.1 °F 92% 30.00 in 6.0 mi East 8.1 mph - 0.00 in Snow Light Snow
1:47 AM 27.0 °F 19.5 °F 25.0 °F 92% 30.00 in 9.0 mi East 6.9 mph - 0.00 in   Scattered Clouds
1:57 AM 26.1 °F 21.9 °F 24.1 °F 92% 30.00 in 10.0 mi NNW 3.5 mph - 0.00 in   Partly Cloudy
2:12 AM 27.0 °F 21.6 °F 25.0 °F 92% 30.01 in 10.0 mi NW 4.6 mph - N/A   Scattered Clouds
2:21 AM 27.0 °F 21.6 °F 25.0 °F 92% 30.00 in 10.0 mi NNE 4.6 mph - N/A   Mostly Cloudy
2:36 AM 26.1 °F - 24.1 °F 92% 29.99 in 10.0 mi Calm Calm - N/A   Mostly Cloudy
2:50 AM 25.0 °F 20.7 °F 24.1 °F 96% 29.99 in 1.8 mi ENE 3.5 mph - N/A   Overcast
2:57 AM 25.0 °F - 23.0 °F 92% 29.97 in 1.0 mi Calm Calm - N/A   Mostly Cloudy
3:10 AM 26.1 °F - 23.0 °F 88% 29.99 in 3.0 mi Calm Calm - N/A   Mostly Cloudy
3:13 AM 26.1 °F - 24.1 °F 92% 29.99 in 9.0 mi Calm Calm - N/A   Mostly Cloudy
3:38 AM 26.1 °F - 24.1 °F 92% 29.98 in 2.5 mi Calm Calm - N/A   Overcast
3:50 AM 26.1 °F - 24.1 °F 92% 29.99 in 2.5 mi Calm Calm - N/A   Overcast
3:57 AM 26.1 °F 21.9 °F 24.1 °F 92% 29.96 in 2.0 mi NE 3.5 mph - N/A   Overcast
4:07 AM 26.1 °F 21.9 °F 24.1 °F 92% 29.98 in 8.0 mi East 3.5 mph - N/A   Overcast
4:23 AM 25.0 °F 20.7 °F 23.0 °F 92% 29.98 in 10.0 mi East 3.5 mph - N/A   Overcast
4:57 AM 25.0 °F 19.3 °F 23.0 °F 92% 29.96 in 10.0 mi East 4.6 mph - N/A   Overcast
5:57 AM 21.0 °F - 19.0 °F 92% 30.00 in 10.0 mi Calm Calm - N/A   Scattered Clouds
6:23 AM 21.9 °F - 19.0 °F 89% 29.99 in 10.0 mi Calm Calm - N/A   Mostly Cloudy
6:36 AM 21.9 °F - 19.0 °F 89% 29.99 in 10.0 mi Calm Calm - N/A   Mostly Cloudy
6:57 AM 23.0 °F - 21.0 °F 92% 30.00 in 10.0 mi Calm Calm - N/A   Overcast
7:20 AM 24.1 °F 16.0 °F 21.9 °F 91% 30.00 in 9.0 mi ENE 6.9 mph - N/A   Overcast
7:57 AM 24.1 °F 18.2 °F 21.9 °F 91% 30.02 in 10.0 mi NE 4.6 mph - N/A   Overcast
8:57 AM 25.0 °F - 24.1 °F 96% 30.02 in 10.0 mi Calm Calm - N/A   Overcast
9:57 AM 28.0 °F - 24.1 °F 85% 30.00 in 10.0 mi Calm Calm - N/A   Overcast
10:40 AM 30.0 °F - 24.1 °F 79% 30.01 in 7.0 mi Calm Calm - N/A   Mostly Cloudy
10:57 AM 30.9 °F - 24.1 °F 76% 29.99 in 10.0 mi Calm Calm - N/A   Mostly Cloudy
11:57 AM 30.9 °F 26.2 °F 26.1 °F 82% 29.99 in 8.0 mi SE 4.6 mph - 0.00 in Snow Light Snow
12:23 PM 33.1 °F - 25.0 °F 72% 30.01 in 2.5 mi Calm Calm - 0.00 in Snow Light Snow
12:32 PM 30.9 °F 27.5 °F 27.0 °F 85% 30.01 in 1.0 mi WSW 3.5 mph - 0.00 in Snow Light Snow
12:39 PM 30.0 °F - 27.0 °F 88% 30.01 in 0.5 mi Calm Calm - 0.01 in Fog , Snow Snow
12:57 PM 30.0 °F 25.2 °F 26.1 °F 85% 29.99 in 0.5 mi ENE 4.6 mph - 0.04 in Fog , Snow Snow
1:13 PM 30.0 °F 25.2 °F 26.1 °F 85% 30.01 in 0.8 mi NE 4.6 mph - 0.01 in Snow Light Snow
1:20 PM 30.9 °F - 26.1 °F 82% 30.02 in 1.8 mi Calm Calm - 0.02 in Snow Light Snow
1:22 PM 32.0 °F - 26.1 °F 79% 30.02 in 2.0 mi Calm Calm - 0.02 in Snow Light Snow
1:27 PM 32.0 °F - 25.0 °F 75% 30.02 in 3.0 mi Calm Calm - 0.02 in Snow Light Snow
1:57 PM 33.1 °F 30.0 °F 24.1 °F 70% 30.00 in 10.0 mi West 3.5 mph - 0.02 in   Mostly Cloudy
2:25 PM 32.0 °F 27.5 °F 24.1 °F 73% 30.02 in 10.0 mi South 4.6 mph - N/A   Mostly Cloudy
2:57 PM 34.0 °F 29.8 °F 23.0 °F 64% 30.00 in 10.0 mi South 4.6 mph - N/A   Mostly Cloudy
3:57 PM 36.0 °F - 24.1 °F 62% 30.01 in 10.0 mi Calm Calm - N/A   Mostly Cloudy
4:57 PM 36.0 °F - 19.0 °F 50% 30.03 in 10.0 mi Calm Calm - N/A   Scattered Clouds
5:57 PM 34.0 °F - 19.9 °F 56% 30.07 in 10.0 mi Calm Calm - N/A   Clear
6:57 PM 30.0 °F 25.2 °F 19.9 °F 66% 30.10 in 10.0 mi SW 4.6 mph - N/A   Clear
7:57 PM 27.0 °F 21.6 °F 18.0 °F 69% 30.14 in 10.0 mi SW 4.6 mph - N/A   Clear
8:57 PM 26.1 °F 21.9 °F 18.0 °F 71% 30.17 in 10.0 mi SW 3.5 mph - N/A   Clear
9:57 PM 23.0 °F - 17.1 °F 78% 30.18 in 10.0 mi Calm Calm - N/A   Clear
10:57 PM 19.9 °F - 16.0 °F 85% 30.18 in 10.0 mi Calm Calm - N/A   Clear
11:57 PM 19.0 °F - 14.0 °F 81% 30.21 in 10.0 mi Calm Calm - N/A   Clear